Year,Month,Day,Hour,Minute,Value (Times are PST for windspeed in km/hr)
2011,07,08,00,00,9.70
2011,07,08,00,01,9.20
2011,07,08,00,02,7.40
2011,07,08,00,03,10.00
2011,07,08,00,04,8.10
2011,07,08,00,05,11.10
2011,07,08,00,06,16.60
2011,07,08,00,07,17.50
2011,07,08,00,08,15.20
2011,07,08,00,09,16.70
2011,07,08,00,10,19.50
2011,07,08,00,11,9.90
2011,07,08,00,12,16.50
2011,07,08,00,13,16.80
2011,07,08,00,16,17.10
2011,07,08,00,17,13.50
2011,07,08,00,18,9.90
2011,07,08,00,19,6.40
2011,07,08,00,20,6.70
2011,07,08,00,21,8.40
2011,07,08,00,22,9.90
2011,07,08,00,23,8.90
2011,07,08,00,24,5.40
2011,07,08,00,25,7.10
2011,07,08,00,26,12.00
2011,07,08,00,27,8.30
2011,07,08,00,28,6.90
2011,07,08,00,29,9.70
2011,07,08,00,30,8.10
2011,07,08,00,31,8.60
2011,07,08,00,32,13.40
2011,07,08,00,33,14.60
2011,07,08,00,34,12.70
2011,07,08,00,35,9.50
2011,07,08,00,36,7.00
2011,07,08,00,37,6.40
2011,07,08,00,38,7.60
2011,07,08,00,39,11.40
2011,07,08,00,40,7.70
2011,07,08,00,41,12.40
2011,07,08,00,42,13.40
2011,07,08,00,43,10.50
2011,07,08,00,44,13.40
2011,07,08,00,45,9.00
2011,07,08,00,46,12.70
2011,07,08,00,47,14.40
2011,07,08,00,48,5.10
2011,07,08,00,49,7.20
2011,07,08,00,50,5.70
2011,07,08,00,51,11.00
2011,07,08,00,52,5.20
2011,07,08,00,53,5.50
2011,07,08,00,54,2.90
2011,07,08,00,55,5.10
2011,07,08,00,56,2.90
2011,07,08,00,57,6.60
2011,07,08,00,58,6.90
2011,07,08,00,59,11.40
2011,07,08,01,00,9.90
2011,07,08,01,01,6.40
2011,07,08,01,02,8.30
2011,07,08,01,03,5.10
2011,07,08,01,04,4.10
2011,07,08,01,05,3.70
2011,07,08,01,06,2.20
2011,07,08,01,07,6.00
2011,07,08,01,08,8.40
2011,07,08,01,09,6.40
2011,07,08,01,10,4.60
2011,07,08,01,11,8.40
2011,07,08,01,12,4.30
2011,07,08,01,13,13.20
2011,07,08,01,14,7.10
2011,07,08,01,15,12.00
2011,07,08,01,16,7.70
2011,07,08,01,17,8.90
2011,07,08,01,18,6.60
2011,07,08,01,19,6.80
2011,07,08,01,20,11.10
2011,07,08,01,21,10.50
2011,07,08,01,22,4.20
2011,07,08,01,23,4.30
2011,07,08,01,24,8.90
2011,07,08,01,25,8.40
2011,07,08,01,26,5.30
2011,07,08,01,27,4.70
2011,07,08,01,28,5.00
2011,07,08,01,29,6.90
2011,07,08,01,30,8.60
2011,07,08,01,31,7.30
2011,07,08,01,32,3.50
2011,07,08,01,33,4.30
2011,07,08,01,34,3.60
2011,07,08,01,35,9.80
2011,07,08,01,36,12.50
2011,07,08,01,37,7.50
2011,07,08,01,38,7.10
2011,07,08,01,39,6.80
2011,07,08,01,40,7.10
2011,07,08,01,41,3.90
2011,07,08,01,42,6.00
2011,07,08,01,43,3.50
2011,07,08,01,44,3.10
2011,07,08,01,45,5.90
2011,07,08,01,46,7.60
2011,07,08,01,47,7.60
2011,07,08,01,48,5.30
2011,07,08,01,49,8.00
2011,07,08,01,50,2.10
2011,07,08,01,51,6.80
2011,07,08,01,52,6.90
2011,07,08,01,53,10.50
2011,07,08,01,54,13.20
2011,07,08,01,55,11.30
2011,07,08,01,56,6.70
2011,07,08,01,57,8.20
2011,07,08,01,58,5.10
2011,07,08,01,59,9.20
2011,07,08,02,00,9.50
2011,07,08,02,01,8.10
2011,07,08,02,02,13.30
2011,07,08,02,03,9.30
2011,07,08,02,04,17.40
2011,07,08,02,05,9.30
2011,07,08,02,06,10.30
2011,07,08,02,07,11.50
2011,07,08,02,08,14.00
2011,07,08,02,09,8.70
2011,07,08,02,10,7.10
2011,07,08,02,11,4.80
2011,07,08,02,12,4.50
2011,07,08,02,13,3.90
2011,07,08,02,14,7.60
2011,07,08,02,15,5.70
2011,07,08,02,16,7.30
2011,07,08,02,17,7.60
2011,07,08,02,18,5.00
2011,07,08,02,19,4.40
2011,07,08,02,20,2.80
2011,07,08,02,21,9.40
2011,07,08,02,22,10.00
2011,07,08,02,23,7.10
2011,07,08,02,24,8.10
2011,07,08,02,25,8.70
2011,07,08,02,26,9.60
2011,07,08,02,27,7.90
2011,07,08,02,28,8.80
2011,07,08,02,29,5.30
2011,07,08,02,30,10.70
2011,07,08,02,31,15.50
2011,07,08,02,32,5.60
2011,07,08,02,33,5.60
2011,07,08,02,34,10.20
2011,07,08,02,35,7.30
2011,07,08,02,36,8.30
2011,07,08,02,37,12.60
2011,07,08,02,38,7.40
2011,07,08,02,39,5.20
2011,07,08,02,40,10.70
2011,07,08,02,41,9.60
2011,07,08,02,42,7.90
2011,07,08,02,43,7.10
2011,07,08,02,44,6.50
2011,07,08,02,45,8.40
2011,07,08,02,46,6.00
2011,07,08,02,47,4.70
2011,07,08,02,48,4.10
2011,07,08,02,49,1.10
2011,07,08,02,50,1.50
2011,07,08,02,51,3.30
2011,07,08,02,52,3.50
2011,07,08,02,53,8.00
2011,07,08,02,54,9.60
2011,07,08,02,55,10.60
2011,07,08,02,56,5.10
2011,07,08,02,57,6.80
2011,07,08,02,58,2.40
2011,07,08,02,59,5.80
2011,07,08,03,00,3.20
2011,07,08,03,01,4.70
2011,07,08,03,02,5.50
2011,07,08,03,03,2.10
2011,07,08,03,04,2.10
2011,07,08,03,05,3.50
2011,07,08,03,06,4.30
2011,07,08,03,07,4.10
2011,07,08,03,08,4.80
2011,07,08,03,09,8.80
2011,07,08,03,10,11.80
2011,07,08,03,11,5.90
2011,07,08,03,12,5.40
2011,07,08,03,13,1.90
2011,07,08,03,14,4.40
2011,07,08,03,15,5.00
2011,07,08,03,16,8.50
2011,07,08,03,17,4.30
2011,07,08,03,18,2.70
2011,07,08,03,19,5.40
2011,07,08,03,20,8.70
2011,07,08,03,21,3.90
2011,07,08,03,22,5.00
2011,07,08,03,23,2.80
2011,07,08,03,24,7.00
2011,07,08,03,25,6.90
2011,07,08,03,26,4.20
2011,07,08,03,27,4.60
2011,07,08,03,28,5.10
2011,07,08,03,29,4.70
2011,07,08,03,30,7.30
2011,07,08,03,31,3.60
2011,07,08,03,32,3.00
2011,07,08,03,33,5.50
2011,07,08,03,34,3.90
2011,07,08,03,35,0.60
2011,07,08,03,36,0.50
2011,07,08,03,37,5.70
2011,07,08,03,38,6.20
2011,07,08,03,39,3.50
2011,07,08,03,40,4.20
2011,07,08,03,41,3.70
2011,07,08,03,42,6.60
2011,07,08,03,43,6.90
2011,07,08,03,44,8.70
2011,07,08,03,45,2.80
2011,07,08,03,46,5.20
2011,07,08,03,47,4.50
2011,07,08,03,48,1.10
2011,07,08,03,49,2.90
2011,07,08,03,50,1.10
2011,07,08,03,51,1.20
2011,07,08,03,52,2.30
2011,07,08,03,53,2.30
2011,07,08,03,54,2.70
2011,07,08,03,55,2.70
2011,07,08,03,56,0.50
2011,07,08,03,57,1.90
2011,07,08,03,58,0.50
2011,07,08,03,59,2.50
2011,07,08,04,00,3.00
2011,07,08,04,01,5.00
2011,07,08,04,02,3.20
2011,07,08,04,03,4.30
2011,07,08,04,04,2.70
2011,07,08,04,05,3.50
2011,07,08,04,06,3.90
2011,07,08,04,07,1.00
2011,07,08,04,08,3.10
2011,07,08,04,09,7.10
2011,07,08,04,10,5.20
2011,07,08,04,11,8.60
2011,07,08,04,12,5.40
2011,07,08,04,13,2.70
2011,07,08,04,14,3.60
2011,07,08,04,15,5.10
2011,07,08,04,16,5.70
2011,07,08,04,17,3.60
2011,07,08,04,18,3.90
2011,07,08,04,19,1.50
2011,07,08,04,20,5.80
2011,07,08,04,21,3.90
2011,07,08,04,22,2.90
2011,07,08,04,23,1.90
2011,07,08,04,24,2.20
2011,07,08,04,25,2.40
2011,07,08,04,26,3.60
2011,07,08,04,27,0.90
2011,07,08,04,28,2.50
2011,07,08,04,29,3.40
2011,07,08,04,30,3.30
2011,07,08,04,31,2.20
2011,07,08,04,32,3.00
2011,07,08,04,33,1.90
2011,07,08,04,34,3.40
2011,07,08,04,35,5.30
2011,07,08,04,36,2.40
2011,07,08,04,37,2.70
2011,07,08,04,38,1.60
2011,07,08,04,39,3.60
2011,07,08,04,40,0.50
2011,07,08,04,41,3.50
2011,07,08,04,42,1.00
2011,07,08,04,43,3.70
2011,07,08,04,44,3.20
2011,07,08,04,45,2.20
2011,07,08,04,46,6.80
2011,07,08,04,47,4.30
2011,07,08,04,48,6.60
2011,07,08,04,49,5.80
2011,07,08,04,50,3.00
2011,07,08,04,51,4.30
2011,07,08,04,52,6.40
2011,07,08,04,53,6.00
2011,07,08,04,54,8.30
2011,07,08,04,55,3.60
2011,07,08,04,56,4.30
2011,07,08,04,57,4.20
2011,07,08,04,58,8.10
2011,07,08,04,59,4.70
2011,07,08,05,00,4.90
2011,07,08,05,01,7.10
2011,07,08,05,02,8.50
2011,07,08,05,03,7.20
2011,07,08,05,04,3.80
2011,07,08,05,05,3.80
2011,07,08,05,06,3.80
2011,07,08,05,07,1.20
2011,07,08,05,08,4.10
2011,07,08,05,09,8.00
2011,07,08,05,10,5.70
2011,07,08,05,11,6.80
2011,07,08,05,12,6.80
2011,07,08,05,13,8.10
2011,07,08,05,14,6.30
2011,07,08,05,15,4.70
2011,07,08,05,16,9.20
2011,07,08,05,17,7.10
2011,07,08,05,18,9.20
2011,07,08,05,19,12.70
2011,07,08,05,20,6.80
2011,07,08,05,21,6.40
2011,07,08,05,22,5.70
2011,07,08,05,23,10.10
2011,07,08,05,24,6.70
2011,07,08,05,25,9.30
2011,07,08,05,26,10.00
2011,07,08,05,27,8.70
2011,07,08,05,28,10.20
2011,07,08,05,29,8.30
2011,07,08,05,30,11.00
2011,07,08,05,31,9.00
2011,07,08,05,32,7.20
2011,07,08,05,33,8.40
2011,07,08,05,34,7.90
2011,07,08,05,35,7.40
2011,07,08,05,36,9.10
2011,07,08,05,37,7.10
2011,07,08,05,38,8.50
2011,07,08,05,39,9.40
2011,07,08,05,40,10.60
2011,07,08,05,41,10.10
2011,07,08,05,42,7.80
2011,07,08,05,43,12.50
2011,07,08,05,44,8.90
2011,07,08,05,45,7.10
2011,07,08,05,46,12.70
2011,07,08,05,47,12.90
2011,07,08,05,48,10.80
2011,07,08,05,49,7.70
2011,07,08,05,50,8.10
2011,07,08,05,51,10.00
2011,07,08,05,52,7.30
2011,07,08,05,53,8.20
2011,07,08,05,54,8.50
2011,07,08,05,55,14.80
2011,07,08,05,56,7.40
2011,07,08,05,57,6.70
2011,07,08,05,58,8.60
2011,07,08,05,59,9.70
2011,07,08,06,00,6.40
2011,07,08,06,01,11.80
2011,07,08,06,02,4.70
2011,07,08,06,03,6.80
2011,07,08,06,04,9.10
2011,07,08,06,05,7.10
2011,07,08,06,06,12.20
2011,07,08,06,07,12.10
2011,07,08,06,08,8.70
2011,07,08,06,09,11.80
2011,07,08,06,10,12.10
2011,07,08,06,11,10.20
2011,07,08,06,12,10.20
2011,07,08,06,13,5.50
2011,07,08,06,14,8.20
2011,07,08,06,15,9.20
2011,07,08,06,16,11.00
2011,07,08,06,17,5.50
2011,07,08,06,18,5.40
2011,07,08,06,19,6.00
2011,07,08,06,20,8.00
2011,07,08,06,21,6.70
2011,07,08,06,22,6.50
2011,07,08,06,23,8.00
2011,07,08,06,24,6.80
2011,07,08,06,25,7.90
2011,07,08,06,26,8.20
2011,07,08,06,27,6.40
2011,07,08,06,28,5.50
2011,07,08,06,29,12.50
2011,07,08,06,30,11.70
2011,07,08,06,31,12.50
2011,07,08,06,32,12.30
2011,07,08,06,33,10.70
2011,07,08,06,34,9.00
2011,07,08,06,35,9.80
2011,07,08,06,36,5.40
2011,07,08,06,37,7.60
2011,07,08,06,38,3.50
2011,07,08,06,39,5.90
2011,07,08,06,40,4.80
2011,07,08,06,41,7.40
2011,07,08,06,42,9.00
2011,07,08,06,43,9.50
2011,07,08,06,44,7.40
2011,07,08,06,45,6.30
2011,07,08,06,46,2.80
2011,07,08,06,47,6.00
2011,07,08,06,48,4.60
2011,07,08,06,49,4.80
2011,07,08,06,50,4.30
2011,07,08,06,51,3.70
2011,07,08,06,52,6.40
2011,07,08,06,53,8.20
2011,07,08,06,54,4.80
2011,07,08,06,55,3.50
2011,07,08,06,56,2.70
2011,07,08,06,57,8.30
2011,07,08,06,58,4.40
2011,07,08,06,59,6.30
2011,07,08,07,00,6.40
2011,07,08,07,01,9.70
2011,07,08,07,02,8.80
2011,07,08,07,03,4.70
2011,07,08,07,04,6.30
2011,07,08,07,05,2.80
2011,07,08,07,06,4.60
2011,07,08,07,07,5.80
2011,07,08,07,08,7.20
2011,07,08,07,09,2.50
2011,07,08,07,10,3.00
2011,07,08,07,11,5.40
2011,07,08,07,12,8.20
2011,07,08,07,13,7.40
2011,07,08,07,14,5.60
2011,07,08,07,15,8.00
2011,07,08,07,16,3.50
2011,07,08,07,17,4.70
2011,07,08,07,18,6.90
2011,07,08,07,19,8.50
2011,07,08,07,20,6.20
2011,07,08,07,21,4.80
2011,07,08,07,22,5.40
2011,07,08,07,23,4.80
2011,07,08,07,24,6.10
2011,07,08,07,25,9.20
2011,07,08,07,26,8.60
2011,07,08,07,27,7.10
2011,07,08,07,28,4.70
2011,07,08,07,29,4.60
2011,07,08,07,30,6.50
2011,07,08,07,31,6.60
2011,07,08,07,32,8.40
2011,07,08,07,33,6.40
2011,07,08,07,34,8.20
2011,07,08,07,35,4.40
2011,07,08,07,36,5.90
2011,07,08,07,37,6.30
2011,07,08,07,38,10.50
2011,07,08,07,39,6.40
2011,07,08,07,40,2.90
2011,07,08,07,41,9.40
2011,07,08,07,42,5.80
2011,07,08,07,43,6.10
2011,07,08,07,44,9.10
2011,07,08,07,45,5.40
2011,07,08,07,46,3.60
2011,07,08,07,47,8.60
2011,07,08,07,48,8.90
2011,07,08,07,49,10.90
2011,07,08,07,50,4.40
2011,07,08,07,51,6.20
2011,07,08,07,52,8.50
2011,07,08,07,53,6.80
2011,07,08,07,54,5.50
2011,07,08,07,55,9.70
2011,07,08,07,56,8.50
2011,07,08,07,57,6.00
2011,07,08,07,58,8.00
2011,07,08,07,59,7.90
2011,07,08,08,00,8.20
2011,07,08,08,01,7.20
2011,07,08,08,02,4.60
2011,07,08,08,03,4.10
2011,07,08,08,04,6.70
2011,07,08,08,05,4.40
2011,07,08,08,06,6.90
2011,07,08,08,07,3.80
2011,07,08,08,08,3.00
2011,07,08,08,09,4.60
2011,07,08,08,10,3.80
2011,07,08,08,11,3.50
2011,07,08,08,12,4.00
2011,07,08,08,13,5.30
2011,07,08,08,14,5.60
2011,07,08,08,15,4.10
2011,07,08,08,16,7.30
2011,07,08,08,17,7.20
2011,07,08,08,18,5.40
2011,07,08,08,19,3.40
2011,07,08,08,20,9.30
2011,07,08,08,21,7.50
2011,07,08,08,22,7.50
2011,07,08,08,23,5.70
2011,07,08,08,24,6.20
2011,07,08,08,25,7.90
2011,07,08,08,26,4.20
2011,07,08,08,27,3.50
2011,07,08,08,28,8.60
2011,07,08,08,29,5.70
2011,07,08,08,30,7.60
2011,07,08,08,31,6.30
2011,07,08,08,32,9.10
2011,07,08,08,33,3.10
2011,07,08,08,34,5.20
2011,07,08,08,35,5.10
2011,07,08,08,36,5.70
2011,07,08,08,37,11.80
2011,07,08,08,38,7.60
2011,07,08,08,39,7.30
2011,07,08,08,40,9.30
2011,07,08,08,41,6.60
2011,07,08,08,42,6.40
2011,07,08,08,43,5.40
2011,07,08,08,44,12.10
2011,07,08,08,45,7.70
2011,07,08,08,46,8.00
2011,07,08,08,47,7.00
2011,07,08,08,48,5.60
2011,07,08,08,49,4.40
2011,07,08,08,50,3.90
2011,07,08,08,51,6.00
2011,07,08,08,52,3.30
2011,07,08,08,53,4.90
2011,07,08,08,54,4.30
2011,07,08,08,55,9.30
2011,07,08,08,56,5.30
2011,07,08,08,57,5.00
2011,07,08,08,58,9.00
2011,07,08,08,59,7.20
2011,07,08,09,00,8.30
2011,07,08,09,01,8.50
2011,07,08,09,02,5.00
2011,07,08,09,03,7.30
2011,07,08,09,04,6.00
2011,07,08,09,05,2.40
2011,07,08,09,06,3.10
2011,07,08,09,07,6.80
2011,07,08,09,08,6.70
2011,07,08,09,09,4.80
2011,07,08,09,10,4.70
2011,07,08,09,11,4.70
2011,07,08,09,12,5.50
2011,07,08,09,13,7.90
2011,07,08,09,14,5.40
2011,07,08,09,15,3.10
2011,07,08,09,16,9.10
2011,07,08,09,17,6.40
2011,07,08,09,18,3.50
2011,07,08,09,19,1.70
2011,07,08,09,20,5.70
2011,07,08,09,21,6.40
2011,07,08,09,22,7.30
2011,07,08,09,23,3.20
2011,07,08,09,24,5.80
2011,07,08,09,25,11.20
2011,07,08,09,26,3.80
2011,07,08,09,27,7.20
2011,07,08,09,28,8.10
2011,07,08,09,29,8.70
2011,07,08,09,30,7.40
2011,07,08,09,31,7.50
2011,07,08,09,32,8.50
2011,07,08,09,33,8.30
2011,07,08,09,34,3.60
2011,07,08,09,35,5.60
2011,07,08,09,36,3.80
2011,07,08,09,37,4.30
2011,07,08,09,38,5.80
2011,07,08,09,39,8.60
2011,07,08,09,40,9.70
2011,07,08,09,41,10.50
2011,07,08,09,42,4.90
2011,07,08,09,43,3.70
2011,07,08,09,44,7.20
2011,07,08,09,45,6.20
2011,07,08,09,46,5.70
2011,07,08,09,47,5.90
2011,07,08,09,48,6.70
2011,07,08,09,49,3.60
2011,07,08,09,50,9.30
2011,07,08,09,51,9.40
2011,07,08,09,52,8.90
2011,07,08,09,53,13.30
2011,07,08,09,54,11.50
2011,07,08,09,55,9.80
2011,07,08,09,56,9.70
2011,07,08,09,57,11.20
2011,07,08,09,58,4.30
2011,07,08,09,59,5.70
2011,07,08,10,00,9.80
2011,07,08,10,01,9.70
2011,07,08,10,02,6.40
2011,07,08,10,03,9.30
2011,07,08,10,04,7.10
2011,07,08,10,05,9.90
2011,07,08,10,06,7.50
2011,07,08,10,07,4.60
2011,07,08,10,08,9.30
2011,07,08,10,09,12.10
2011,07,08,10,10,11.30
2011,07,08,10,11,5.20
2011,07,08,10,12,9.70
2011,07,08,10,13,6.10
2011,07,08,10,14,8.30
2011,07,08,10,15,10.00
2011,07,08,10,16,13.30
2011,07,08,10,17,15.30
2011,07,08,10,18,18.70
2011,07,08,10,19,18.60
2011,07,08,10,20,17.50
2011,07,08,10,21,11.00
2011,07,08,10,22,11.60
2011,07,08,10,23,11.80
2011,07,08,10,24,14.60
2011,07,08,10,25,12.60
2011,07,08,10,26,12.70
2011,07,08,10,27,15.70
2011,07,08,10,28,16.90
2011,07,08,10,29,17.10
2011,07,08,10,30,14.50
2011,07,08,10,31,14.00
2011,07,08,10,32,11.00
2011,07,08,10,33,14.50
2011,07,08,10,34,19.00
2011,07,08,10,35,17.30
2011,07,08,10,36,13.00
2011,07,08,10,37,10.70
2011,07,08,10,38,15.30
2011,07,08,10,39,10.10
2011,07,08,10,40,10.70
2011,07,08,10,41,14.50
2011,07,08,10,42,10.80
2011,07,08,10,43,11.80
2011,07,08,10,44,12.90
2011,07,08,10,45,11.30
2011,07,08,10,46,11.10
2011,07,08,10,47,9.90
2011,07,08,10,48,10.80
2011,07,08,10,49,6.40
2011,07,08,10,50,7.20
2011,07,08,10,51,7.50
2011,07,08,10,52,5.90
2011,07,08,10,53,6.40
2011,07,08,10,54,4.30
2011,07,08,10,55,4.50
2011,07,08,10,56,9.50
2011,07,08,10,57,12.00
2011,07,08,10,58,9.50
2011,07,08,10,59,9.90
2011,07,08,11,00,11.60
2011,07,08,11,01,7.30
2011,07,08,11,02,7.80
2011,07,08,11,03,6.80
2011,07,08,11,04,6.00
2011,07,08,11,05,7.30
2011,07,08,11,06,10.90
2011,07,08,11,07,9.70
2011,07,08,11,08,13.50
2011,07,08,11,09,12.00
2011,07,08,11,10,12.60
2011,07,08,11,11,11.30
2011,07,08,11,12,7.30
2011,07,08,11,13,7.80
2011,07,08,11,14,10.90
2011,07,08,11,15,10.40
2011,07,08,11,16,9.50
2011,07,08,11,17,9.00
2011,07,08,11,18,8.50
2011,07,08,11,19,4.90
2011,07,08,11,20,5.20
2011,07,08,11,21,5.50
2011,07,08,11,22,8.50
2011,07,08,11,23,8.00
2011,07,08,11,24,6.00
2011,07,08,11,25,5.00
2011,07,08,11,26,3.10
2011,07,08,11,27,5.60
2011,07,08,11,28,4.90
2011,07,08,11,29,11.80
2011,07,08,11,30,5.20
2011,07,08,11,31,4.20
2011,07,08,11,32,6.90
2011,07,08,11,33,3.90
2011,07,08,11,34,6.10
2011,07,08,11,35,7.10
2011,07,08,11,36,6.90
2011,07,08,11,37,6.90
2011,07,08,11,38,6.20
2011,07,08,11,39,7.00
2011,07,08,11,40,7.40
2011,07,08,11,41,7.70
2011,07,08,11,42,10.80
2011,07,08,11,43,10.60
2011,07,08,11,44,4.80
2011,07,08,11,45,8.20
2011,07,08,11,46,8.00
2011,07,08,11,47,5.10
2011,07,08,11,48,6.80
2011,07,08,11,49,3.80
2011,07,08,11,50,8.10
2011,07,08,11,51,6.00
2011,07,08,11,52,5.10
2011,07,08,11,53,2.20
2011,07,08,11,54,5.70
2011,07,08,11,55,8.70
2011,07,08,11,56,12.90
2011,07,08,11,57,9.50
2011,07,08,11,58,13.40
2011,07,08,11,59,10.00
2011,07,08,12,00,8.10
2011,07,08,12,01,6.90
2011,07,08,12,02,7.90
2011,07,08,12,03,8.90
2011,07,08,12,04,7.00
2011,07,08,12,05,9.70
2011,07,08,12,06,8.50
2011,07,08,12,07,5.20
2011,07,08,12,08,4.60
2011,07,08,12,09,7.80
2011,07,08,12,10,4.80
2011,07,08,12,11,3.20
2011,07,08,12,12,7.80
2011,07,08,12,13,9.90
2011,07,08,12,14,13.40
2011,07,08,12,15,3.60
2011,07,08,12,16,5.10
2011,07,08,12,17,2.80
2011,07,08,12,18,5.60
2011,07,08,12,19,4.50
2011,07,08,12,20,11.20
2011,07,08,12,21,5.60
2011,07,08,12,22,4.40
2011,07,08,12,23,6.50
2011,07,08,12,24,5.80
2011,07,08,12,25,4.50
2011,07,08,12,26,11.70
2011,07,08,12,27,10.60
2011,07,08,12,28,9.30
2011,07,08,12,29,5.70
2011,07,08,12,30,6.00
2011,07,08,12,31,11.90
2011,07,08,12,32,8.40
2011,07,08,12,33,8.30
2011,07,08,12,34,7.20
2011,07,08,12,35,9.70
2011,07,08,12,36,7.70
2011,07,08,12,37,8.60
2011,07,08,12,38,9.30
2011,07,08,12,39,7.00
2011,07,08,12,40,8.90
2011,07,08,12,41,8.90
2011,07,08,12,42,8.90
2011,07,08,12,43,5.10
2011,07,08,12,44,5.40
2011,07,08,12,45,7.40
2011,07,08,12,46,4.80
2011,07,08,12,47,4.60
2011,07,08,12,48,7.60
2011,07,08,12,49,8.30
2011,07,08,12,50,9.60
2011,07,08,12,51,8.50
2011,07,08,12,52,6.50
2011,07,08,12,53,8.30
2011,07,08,12,54,10.10
2011,07,08,12,55,13.90
2011,07,08,12,56,11.10
2011,07,08,12,57,11.10
2011,07,08,12,58,8.30
2011,07,08,12,59,10.90
2011,07,08,13,00,9.40
2011,07,08,13,01,9.10
2011,07,08,13,02,7.40
2011,07,08,13,03,11.00
2011,07,08,13,04,11.50
2011,07,08,13,05,8.60
2011,07,08,13,06,10.40
2011,07,08,13,07,9.50
2011,07,08,13,08,13.30
2011,07,08,13,09,8.20
2011,07,08,13,10,8.30
2011,07,08,13,11,8.40
2011,07,08,13,12,4.50
2011,07,08,13,13,8.70
2011,07,08,13,14,7.90
2011,07,08,13,15,9.70
2011,07,08,13,16,16.50
2011,07,08,13,17,12.30
2011,07,08,13,18,3.50
2011,07,08,13,19,8.10
2011,07,08,13,20,6.90
2011,07,08,13,21,3.80
2011,07,08,13,22,11.20
2011,07,08,13,23,8.40
2011,07,08,13,24,6.20
2011,07,08,13,25,6.70
2011,07,08,13,26,10.00
2011,07,08,13,27,12.40
2011,07,08,13,28,12.60
2011,07,08,13,29,10.00
2011,07,08,13,30,10.50
2011,07,08,13,31,12.20
2011,07,08,13,32,10.30
2011,07,08,13,33,4.10
2011,07,08,13,34,2.90
2011,07,08,13,35,10.00
2011,07,08,13,36,6.40
2011,07,08,13,37,10.90
2011,07,08,13,38,9.70
2011,07,08,13,39,5.90
2011,07,08,13,40,5.30
2011,07,08,13,41,11.90
2011,07,08,13,42,8.70
2011,07,08,13,43,8.60
2011,07,08,13,44,12.20
2011,07,08,13,45,14.20
2011,07,08,13,46,12.80
2011,07,08,13,47,8.70
2011,07,08,13,48,3.80
2011,07,08,13,49,2.70
2011,07,08,13,50,4.10
2011,07,08,13,51,6.30
2011,07,08,13,52,5.60
2011,07,08,13,53,5.80
2011,07,08,13,54,4.80
2011,07,08,13,55,9.40
2011,07,08,13,56,10.70
2011,07,08,13,57,15.00
2011,07,08,13,58,7.30
2011,07,08,13,59,6.80
2011,07,08,14,00,6.80
2011,07,08,14,01,10.00
2011,07,08,14,02,7.10
2011,07,08,14,03,7.10
2011,07,08,14,04,10.90
2011,07,08,14,05,16.00
2011,07,08,14,06,12.00
2011,07,08,14,07,14.30
2011,07,08,14,08,6.40
2011,07,08,14,09,14.10
2011,07,08,14,10,8.50
2011,07,08,14,11,6.60
2011,07,08,14,12,9.00
2011,07,08,14,13,10.40
2011,07,08,14,14,14.50
2011,07,08,14,15,13.50
2011,07,08,14,16,8.00
2011,07,08,14,17,7.00
2011,07,08,14,18,16.00
2011,07,08,14,19,12.00
2011,07,08,14,20,14.10
2011,07,08,14,21,13.10
2011,07,08,14,22,17.30
2011,07,08,14,23,10.80
2011,07,08,14,24,8.10
2011,07,08,14,25,8.30
2011,07,08,14,26,17.50
2011,07,08,14,27,7.90
2011,07,08,14,28,7.90
2011,07,08,14,29,13.80
2011,07,08,14,30,14.90
2011,07,08,14,31,9.20
2011,07,08,14,32,14.10
2011,07,08,14,33,12.10
2011,07,08,14,34,12.50
2011,07,08,14,35,4.50
2011,07,08,14,36,8.60
2011,07,08,14,37,6.70
2011,07,08,14,38,6.30
2011,07,08,14,39,5.80
2011,07,08,14,40,11.60
2011,07,08,14,41,13.00
2011,07,08,14,42,16.00
2011,07,08,14,43,8.10
2011,07,08,14,44,11.00
2011,07,08,14,45,12.30
2011,07,08,14,46,14.10
2011,07,08,14,47,16.70
2011,07,08,14,48,14.70
2011,07,08,14,49,14.30
2011,07,08,14,50,14.30
2011,07,08,14,51,13.00
2011,07,08,14,52,11.60
2011,07,08,14,53,12.80
2011,07,08,14,54,17.40
2011,07,08,14,55,19.30
2011,07,08,14,56,13.90
2011,07,08,14,57,19.60
2011,07,08,14,58,14.00
2011,07,08,14,59,11.80
2011,07,08,15,00,12.60
2011,07,08,15,01,18.20
2011,07,08,15,02,15.10
2011,07,08,15,03,16.70
2011,07,08,15,04,13.10
2011,07,08,15,05,9.30
2011,07,08,15,06,12.20
2011,07,08,15,07,13.50
2011,07,08,15,08,10.40
2011,07,08,15,09,15.00
2011,07,08,15,10,8.30
2011,07,08,15,11,9.50
2011,07,08,15,12,9.00
2011,07,08,15,13,10.60
2011,07,08,15,14,9.30
2011,07,08,15,15,10.60
2011,07,08,15,16,9.20
2011,07,08,15,17,12.60
2011,07,08,15,18,9.80
2011,07,08,15,19,11.70
2011,07,08,15,20,14.30
2011,07,08,15,21,8.40
2011,07,08,15,22,4.80
2011,07,08,15,23,5.40
2011,07,08,15,24,12.00
2011,07,08,15,25,17.40
2011,07,08,15,26,15.20
2011,07,08,15,27,13.90
2011,07,08,15,28,16.80
2011,07,08,15,29,14.90
2011,07,08,15,30,15.90
2011,07,08,15,31,10.80
2011,07,08,15,32,8.50
2011,07,08,15,33,11.10
2011,07,08,15,34,15.80
2011,07,08,15,35,10.40
2011,07,08,15,36,6.70
2011,07,08,15,37,10.90
2011,07,08,15,38,6.40
2011,07,08,15,39,9.60
2011,07,08,15,40,12.20
2011,07,08,15,41,8.00
2011,07,08,15,42,6.20
2011,07,08,15,43,4.70
2011,07,08,15,44,4.80
2011,07,08,15,45,6.90
2011,07,08,15,46,4.20
2011,07,08,15,47,3.20
2011,07,08,15,48,8.00
2011,07,08,15,49,9.70
2011,07,08,15,50,9.30
2011,07,08,15,51,8.10
2011,07,08,15,52,5.10
2011,07,08,15,53,6.70
2011,07,08,15,54,8.00
2011,07,08,15,55,7.50
2011,07,08,15,56,5.60
2011,07,08,15,57,9.80
2011,07,08,15,58,8.50
2011,07,08,15,59,7.30
2011,07,08,16,00,9.00
2011,07,08,16,01,8.40
2011,07,08,16,02,5.50
2011,07,08,16,03,10.90
2011,07,08,16,04,8.90
2011,07,08,16,05,6.00
2011,07,08,16,06,7.80
2011,07,08,16,07,6.80
2011,07,08,16,08,7.20
2011,07,08,16,09,9.20
2011,07,08,16,10,11.40
2011,07,08,16,11,10.50
2011,07,08,16,12,11.00
2011,07,08,16,13,10.90
2011,07,08,16,14,4.00
2011,07,08,16,15,6.00
2011,07,08,16,16,9.30
2011,07,08,16,17,3.00
2011,07,08,16,18,4.10
2011,07,08,16,19,3.40
2011,07,08,16,20,7.30
2011,07,08,16,21,7.10
2011,07,08,16,22,2.80
2011,07,08,16,23,8.00
2011,07,08,16,24,5.20
2011,07,08,16,25,3.60
2011,07,08,16,26,2.40
2011,07,08,16,27,8.90
2011,07,08,16,28,10.90
2011,07,08,16,29,17.20
2011,07,08,16,30,12.00
2011,07,08,16,31,10.80
2011,07,08,16,32,8.00
2011,07,08,16,33,6.80
2011,07,08,16,34,10.10
2011,07,08,16,35,11.60
2011,07,08,16,36,13.80
2011,07,08,16,37,13.70
2011,07,08,16,38,11.80
2011,07,08,16,39,9.50
2011,07,08,16,40,6.90
2011,07,08,16,41,7.30
2011,07,08,16,42,7.50
2011,07,08,16,43,6.70
2011,07,08,16,44,4.70
2011,07,08,16,45,7.20
2011,07,08,16,46,3.90
2011,07,08,16,47,5.00
2011,07,08,16,48,10.70
2011,07,08,16,49,5.20
2011,07,08,16,50,7.50
2011,07,08,16,51,11.40
2011,07,08,16,52,10.10
2011,07,08,16,53,8.00
2011,07,08,16,54,9.30
2011,07,08,16,55,6.60
2011,07,08,16,56,8.20
2011,07,08,16,57,11.20
2011,07,08,16,58,12.90
2011,07,08,16,59,9.40
2011,07,08,17,00,13.00
2011,07,08,17,01,5.90
2011,07,08,17,02,6.30
2011,07,08,17,03,6.70
2011,07,08,17,04,7.70
2011,07,08,17,05,6.60
2011,07,08,17,06,5.40
2011,07,08,17,07,10.60
2011,07,08,17,08,14.00
2011,07,08,17,09,11.60
2011,07,08,17,10,10.40
2011,07,08,17,11,7.40
2011,07,08,17,12,9.80
2011,07,08,17,13,11.30
2011,07,08,17,14,17.50
2011,07,08,17,15,11.00
2011,07,08,17,16,9.40
2011,07,08,17,17,8.40
2011,07,08,17,18,6.80
2011,07,08,17,19,8.50
2011,07,08,17,20,7.90
2011,07,08,17,21,6.50
2011,07,08,17,22,9.70
2011,07,08,17,23,14.30
2011,07,08,17,24,8.10
2011,07,08,17,25,11.30
2011,07,08,17,26,13.90
2011,07,08,17,27,6.80
2011,07,08,17,28,7.10
2011,07,08,17,29,10.70
2011,07,08,17,30,9.70
2011,07,08,17,31,11.50
2011,07,08,17,32,9.10
2011,07,08,17,33,10.00
2011,07,08,17,34,12.20
2011,07,08,17,35,13.60
2011,07,08,17,36,17.30
2011,07,08,17,37,8.50
2011,07,08,17,38,12.00
2011,07,08,17,39,8.90
2011,07,08,17,40,12.10
2011,07,08,17,41,11.00
2011,07,08,17,42,9.40
2011,07,08,17,43,8.10
2011,07,08,17,44,8.20
2011,07,08,17,45,9.30
2011,07,08,17,46,10.10
2011,07,08,17,47,7.50
2011,07,08,17,48,4.90
2011,07,08,17,49,4.60
2011,07,08,17,50,12.10
2011,07,08,17,51,10.30
2011,07,08,17,52,7.30
2011,07,08,17,53,11.30
2011,07,08,17,54,7.80
2011,07,08,17,55,7.50
2011,07,08,17,56,5.60